Race Results for
2009 USA Cycling Mountain Bike Nationals
Granby, CO
(Event Information)
Downhill on 07/18/2009

Note: Ranking points are NOT upgrade points. An explanation of ranking points can be found here.


Men - Cat 3 - Junior - 15-18

 Place Points NameCity, StateTime USAC #BibTeam
1400.00Cody Costa   Centennial, CO02:50.42 264880  1014 Redstone Cyclery
2403.75Jackson Buscher   Santafe, NM02:50.98 280240  786 One Ghost
3407.50ausitn chipman   Durango, CO02:52.89 290097  1504 Team Kozos
4411.25Joseph Crosby   Colorado Springs, CO02:53.56 280787  1519 
5415.00adam fox   Parker, CO02:54.59 287425  1465 Team Kozos
6418.75Cody Kelley   Riverton, UT03:02.26 264805  1000 Cafe Rio
7422.50Sam Blomquist   Berthoud, CO03:03.31 298233  822 Grand Sports
8426.25John Nichols   Flagstaff, AZ03:03.86 296612  897 Absolute Bikes
9430.00William Beilke   Aurora, CO03:04.24 267179  1273 Mojo Wheels
10433.75Zack Ward   Flagstaff, AZ03:04.83 275241  763 Absolute Bikes
11437.50Kole Sharp   Amarillo, TX03:06.37 296091  1508 Sharps Motorsports
12441.25Jeff Surdo   Woodland Park, CO03:11.30 280793  1149 
13445.00Wiley Kaupas   Dillon, CO03:11.64 292907  1180 Wolf Rock Racing
14448.75Robert Hendry   Littleton, CO03:12.65 272081  860 Mojo Wheels
15452.50Wylie Brownell   Carbondale, CO03:14.98 280478  1518 
16456.25Ben Weger   Englewood, CO03:18.66 287114  1257 Mojo Wheels
17460.00Joshua Wilcox   Los Alamos, NM03:19.91 278660  1105 High Desert Bicycles
18463.75Josh Lambert   Centennial, CO03:28.53 286155  1350 Mojo Wheels
19467.50Mitch Davis   Maple Valley, WA03:45.82 244772  766 Theraputic Associates / Black Diamond Ra
20471.25Ryan Dumais   Golden, CO04:22.06 286108  1233 Mojo Wheels
21475.00Bill Woods   Lyons, CO05:37.08 279103  1027 
DNSJesse Wilkinson   Mounthermon, CADNS 297545  611 
DNSRyan Walker   Scotts Valley, CADNS 297530  623 
DNSBen Robinson   Centennial, CODNS 286829  718 Mojo Wheels
DNSHank Stowers   Durango, CODNS 267744  1232 Durango Devo

Men - Cat 3 - Senior - 19-29

 Place Points NameCity, StateTime USAC #BibTeam
1200.00seth moreland   Amarillo, TX02:56.15 289675  1303 
2215.00Erich Ward   Colorado Springs, CO03:10.21 275334  726 Hybrosec
3230.00Aaron Barr   Clyde, TX03:10.23 296629  1395 
4245.00Austin Prince   Losalamos, NM03:17.31 299035  1507 
5260.00Austen Bailey   Centennial, CO03:46.69 299150  1593 
6275.00Matthew Halley   Boulder, CO03:49.09 299023  1408 

Men - Cat 3 - Master - 30-39

 Place Points NameCity, StateTime USAC #BibTeam
1400.00Seth Strickland   Breckenridge, CO03:02.90 243646  869 Great Adventure Sports / Empire Burger
2437.50Christopher Taylor   Colorado Springs, CO03:14.49 247957  1130 
3475.00Joaquin Canizales   Little Falls, NJ04:32.05 249064  1197 Team Marty's
DNSJohnnie Kavanaugh   Golden, CODNS 75267  663 

Men - Cat 3 - Master - 40-99

 Place Points NameCity, StateTime USAC #BibTeam
1450.00Tom McConnell   El Paso, TX03:45.85 75527  638 Team Balzac / Turner Bikes
2475.00Steve Ward   Flagstaff, AZ04:07.98 270265  1495 
3500.00Rob Hendry   Littleton, CO04:24.63 295786  1538 Mojo Wheels
4525.00parsifal Smith   Allen, NE05:00.38 298301  1026 

Men - Cat 2 - Junior - 15-18

 Place Points NameCity, StateTime USAC #BibTeam
1350.00Alec Toney   Basalt, CO02:39.13 278324  1450 Team Geronimo
2352.34Dillon Lemarr   Amarillo, TX02:40.05 291074  1471 One Ghost Industries
3354.69Lear Miller   Sedona, AZ02:40.48 221501  1123 
4357.03Madison Bailey   Carbondale, CO02:41.38 227702  888 RPM / Yeti
5359.38Rory Eastman   Peralta, NM02:42.57 258304  1506 
6361.72Kyle Mooday   Los Alamos, NM02:43.08 298995  1428 Bikeworks Albuquerque
7364.06Gus Berg   Basalt, CO02:43.60 280790  1370 Team Geronimo
8366.41Austin Hackett Klaube   Dillon, CO02:46.76 294146  808 Wolf Rock Racing
9368.75Scott Punt   Mount Shasta, CA02:47.71 295635  976 
10371.09Robbie Brooks   Los Alamos, NM02:47.82 292381  1275 Bikeworks Albuquerque
11373.44Max Syron   Rockport, MA02:48.49 282083  1434 Sinister United Freeride
12375.78Paul McSparin   Frisco, CO02:48.83 294143  697 Wolf Rock Racing / Trek / Maxxis / 661 /
13378.12Ty Brooks   Los Alamos, NM02:51.97 295797  1276 Bikeworks Albuquerque
14380.47Cody Womack   Roseville, CA02:52.21 279973  1329 
15382.81Gregory Rea   Reno, NV02:53.39 298958  1572 Northstar at Tahoe / Giant
16385.16Ethan Evans   Boulder, CO02:53.72 280040  1223 Crested Butte Mountain Sports Team
17387.50Aaron Suits   Roseville, CA02:54.11 262815  1183 The Hub Bicycles
18389.84Jared EVANS   02:54.38  1470 Rider's Choice Bikes
19392.19Matson Hunter   Tijeras, NM02:56.03 281707  1488 Bikeworks Albuquerque
20394.53Mackenzie Hayes   Glenwood Springs, CO02:58.83 280792  1592 Team Nine7Zero
21396.88Blake Weber   Parker, CO02:59.36 263904  1082 Team Kozos
22399.22Clayton Shank   Amarillo, TX02:59.86 237553  565 One Ghost Industries
23401.56daniel rodosky   Wilson, WY03:00.38 298341  972 
24403.91Cameron Spies   Sedalia, CO03:02.29 272275  1588 Mojo Wheels
25406.25Ray Syron   Rockport, MA03:03.69 282084  1433 Sinister United Freeride
26408.59Hayden Kast   Littleton, CO03:04.62 242952  916 Mojo Wheels
27410.94Douglas Harris   Castle Rock, CO03:06.62 227941  1016 Mojo Wheels
28413.28Boston Cleek   Arvada, CO03:07.71 268478  1335 Team Kozos
29415.62Max Dolar   Boise, ID03:08.20 267826  1083 Joyride Cycles
30417.97Zach Johnson   Nederland, CO03:12.22 246433  1216 Terminal Velocity Racing
31420.31Jacob Schooley   Soldotna, AK03:20.40 298575  1172 Fuel Clothing
32422.66Russell Holliday   Santabarbara, CA03:23.74 285454  741 
33425.00Chase DeMeulenaere   Basalt, CO03:37.88 264550  1528 Team Nine7Zero
DNSSean Matanovich   Golden, CODNS 277272  1160 Mojo Wheels
DNSJohn MacMurray   Durango, CODNS 265526  1509 Mongoose Tribe / 661 / Freelap Timing Sy
DNSDakota LASSALETTE   DNS  1559 

Men - Cat 2 - Senior - 19-24

 Place Points NameCity, StateTime USAC #BibTeam
1200.00Matt Cerrato   Santa Clarita, CA02:31.58 297033  1278 661
2204.17Douglas French   Rimrock, AZ02:32.25 293104  1066 Absolute Bikes / Specialized
3208.33Ryan Gagnon   Los Angeles, CA02:37.42 297032  863 
4212.50Mason LACY   02:44.58  1594 Joey Schusler Racing
5216.67Lucas LeMaire   Durango, CO02:46.08 264893  736 Rockwell Time
6220.83Andrew Browne   Laguna Niguel, CA02:50.79 298562  905 
7225.00John Kelly   Boulder, CO02:53.22 279720  946 
8229.17Yosei Ikeda   Boulder, CO02:53.82 213185  1166 Terminal Velocity Racing
9233.33Bailey Peeso   Grand Junction, CO02:55.07 213015  684 Grassroots Cycles
10237.50Patrick Branch   Yountville, CA02:56.29 250529  1013 PBmedia
11241.67Andrew Miller   Dillon, CO02:57.33 298944  1526 
12245.83Martin Novak   Longmont, CO02:58.37 261097  1244 Terminal Velocity Racing
13250.00Price Seliger   Winter Park, CO03:01.42 285344  892 Dirt Labs / Thug Mansion Racing / Dean O
14254.17Chris Rupinski   Basalt, CO03:11.11 291960  939 970
15258.33Matt Ripley   Greenwood Vlg, CO03:12.04 230682  525 Terminal Velocity Racing
16262.50Nick Beale   Spokane Valley, WA03:13.22 280935  845 
17266.67Andrew Kirk   Fort Collins, CO03:16.06 274347  1564 Canyon Cycles
18270.83Clay Guidry   Canon City, CO03:26.83 253196  1511 Team Kozos
DNSBrandon LaBonte   Payson, AZDNS 272882  772 
DNFKevin Rafferty II   Irvine, CADNF 263228  553 

Men - Cat 2 - Senior - 25-29

 Place Points NameCity, StateTime USAC #BibTeam
1300.00R.D. Watters   Bellingham, WA02:40.44 286366  750 Azonic / Oneal
2315.00jesse townsend   Grand Junction, CO02:49.70 288568  574 
3330.00Matt Parke   Denver, CO02:55.44 278454  1262 Canyon Cycles
4345.00Patrick McDonnell   Denver, CO03:15.31 277263  1613 Mojo Wheels
5360.00Drew Welch   Denver, CO03:18.00 294539  1502 Singletrack Factory
DNSjoe palmer   Rapid City, SDDNS 293875  931 
DNFMichael Doucette   Denver, CODNF 294790  1280 

Men - Cat 2 - Master - 30-34

 Place Points NameCity, StateTime USAC #BibTeam
1300.00Blake Treadway   Grand Junction, CO03:00.73 296347  666 Grassroots Cycles
2315.00Scott Richards   Boulder, CO03:01.54 263444  1579 Orbit Racing
3330.00Joshua Swanke   Grand Lake, CO03:01.95 298253  1540 Totally Wired Cyclery
4345.00Pete Roman   Mammothlakes, CA03:05.18 295494  1614 
5360.00bart spedden   Superior, CO03:11.64 274655  1058 
6375.00Georgee Kidder   Snowmass Village, CO03:22.00 298903  1195 High Society
DNSMatthew Hentze   Englewood, CODNS 265566  680 Mojo Wheels

Men - Cat 2 - Master - 35-39

 Place Points NameCity, StateTime USAC #BibTeam
1300.00andrew heine   Denver, CO02:54.11 298791  1010 Wheatridge Cyclery
2315.00Rob Stevenson   Dillon, CO03:02.30 266351  1246 
3330.00Lane BOERTMANN   03:08.05  1468 Beechwood Bikes
4345.00Jason Krause   Palmer Lake, CO03:12.12 268242  768 Canyon Cycles
5360.00Jeff Yeiser   Evergreen, CO03:14.36 294287  1368 
6375.00Garth Hare   Park City, UT03:15.75 295939  827 HCPC

Men - Cat 2 - Master - 40-49

 Place Points NameCity, StateTime USAC #BibTeam
1350.00Stewart Mitchell   Bozeman, MT03:04.59 24624  661 Gallatin Alpine Sports
2358.33Blake NELSON   03:06.88  1473 
3366.67Larry Young   Fort Collins, CO03:10.64 298284  1331 Trek
4375.00Michael Takahashi   Penn Valley, CA03:11.65 112336  927 Intense / Azonic / Evomo / Spinergy / 66
5383.33Mike Strobel   Butler, PA03:14.39 188681  629 
6391.67Gary Punt   Mountshasta, CA03:14.69 298429  975 
7400.00Clint Bullock   Salt Lake City, UT03:18.84 228738  1021 
8408.33Sean Smith   Westminster, CO03:23.63 252296  665 
9416.67Steve King   Denver, CO03:54.73 230516  1238 Mojo Wheels
10425.00Tom Judy   Cool, CA03:56.10 18342  1452 Gravit-E-Works / DH Reno / Evomo

Men - Cat 2 - Master - 50-99

 Place Points NameCity, StateTime USAC #BibTeam
1400.00Robert BEVARD   03:26.43  1503 Horns Hill Hucksters / God / Bike Doctor
2415.00Gil Goodrich   Three Rivers, CA03:32.05 13682  1401 Filz Built Bicycles
3430.00michael Kast   Littleton, CO03:35.67 250397  917 
4445.00Roger Baker   Kingston, ID04:34.49 265010  1449 Wheel Sport East Spokane
DNFScott Branney   Highlands Ranch, CODNF 237847  986 RPM / Yeti
DNFTom Stevens   Carbondale, CODNF 265521  1486 RPM/Yeti

Men - Cat 1 - Junior - 15-16

 Place Points NameCity, StateTime USAC #BibTeam
1300.00Andy Proctor   Dillon, CO02:26.97 218094  1271 RPM / Yeti
2309.38Nate Furbee   Los Osos, CA02:30.17 215754  675 WTB / Fox / Baywood / Gamut
3318.75Trevor Trinkino   Evergreen, CO02:31.24 242852  1623 Mojo Wheels
4328.12Teddy Benge   Carbondale, CO02:31.42 227700  1182 RPM / Yeti
5337.50Conner Mishalanie   Kirkland, WA02:35.54 264407  1301 
6346.88Christian Wright   Auburn, CA02:40.21 234304  754 Commencal / EX Drinks / FoxShox
7356.25Khaner Smith   San Francisco, CA02:42.43 241535  1379 
8365.62Harrison Ory   Denver, CO02:43.53 230690  1240 Mojo Wheels
9375.00David Renne   Littleton, CO02:48.39 257929  1226 Mojo Wheels
DNSMax Marshall   Santa Barbara, CADNS 259039  1155 
DNSRobert Lewis   Pittsburgh, PADNS 296992  1520 Seven Springs Bike Park

Men - Cat 1 - Junior - 17-18

 Place Points NameCity, StateTime USAC #BibTeam
1250.00Mitch Ropelato   Ogden, UT02:18.36 240150  42 Cafe Rio / Canfield Brothers
2252.08Shawn Neer   Arvada, CO02:19.17 203249  10 Orbit Racing
3254.17Kevin Aiello   Rancho Santa Margarita, CA02:19.38 245409  92 GT Bicycles
4256.25Derek Teel   Roseville, CA02:21.22 250236  1343 Yeti Fox Regional
5258.33Keith Morelan   San Jose, CA02:23.46 250519  731 Ride SFO Faction
6260.42Sam Powers   Lyons, CO02:24.27 254261  1366 Redstone Cyclery
7262.50Nic Hadley   Salt Lake City, UT02:24.36 200990  1008 Go-Ride
8264.58Bradley King   Hemet02:24.38 258129  1542 Specialized Team America
9266.67Luciano Worl   Woodinville, WA02:24.86 162267  753 Fluid Ride / Evil Bikes / Greg Norman Cr
10268.75Justin Wyche   Newbury Park, CA02:25.24 260799  987 Division 26
11270.83Dustin Coker   Sedona, AZ02:26.45 264187  1490 RPM/Yeti
12272.92Geoffrey Ulmer   Troy, NY02:27.73 197485  105 POC / Xprezo / Duro / Cane Creek / Gravi
13275.00Samuel Stevens   Carbondale, CO02:28.19 217240  1487 Yeti Fox Regional
14277.08Evan Gilsdorf   Sammamish, WA02:29.04 247503  513 Downhill Zone / Elka Suspension
15279.17Michael Whitley   Danville, CA02:29.10 253919  1497 Another Bike Shop
16281.25Forest Belluzzi   Benicia, CA02:29.47 250540  1429 FrameWrap / WTB
17283.33Adam Digby   San Juan Capistrano, CA02:31.09 295155  1224 Chumba Racing / Mom & Dad
18285.42Alex Amaral   Truckee, CA02:31.38 250237  1272 Point One Racing
19287.50Alex Couture   Conway, NH02:31.45 266641  738 Giant Bicycles / Michelin Tires
20289.58Logan James   Durango, CO02:32.77 215000  1267 Pedal the Peaks / E13
21291.67Ian Keller   Gilbert, AZ02:34.30 262213  1111 The Classic Bike Shop
22293.75Brian Guse   Fall City, WA02:35.52 262456  1377 Dirt Corps / Transition Bikes / Nema
23295.83David Lowe   Nevada City, CA02:36.38 252211  1297 
24297.92Evan Powell   Boulder, CO02:36.72 243877  1342 Yeti Fox Regional
25300.00Evan Geankoplis   Goldriver, CA02:38.70 290045  1531 
26302.08Eric Swanson   Santa Barbara, CA02:39.31 262866  1461 Chumba Racing
27304.17Jake Womack   Granitebay, CA02:39.41 279972  1330 
28306.25Michael Gross   Walpole, MA02:41.23 244155  1491 Team Drop
29308.33Craig Lange   Any Town, CO02:44.03 239734  1234 Mojo Wheels
30310.42Nathan Pensler   Chevy Chase, MD02:44.09 256154  1533 Coyote Hill
31312.50Michael Nash   Auburn, CA02:44.51 277198  1532 
32314.58Traver Joehnck   Santa Barbara, CA02:46.04 249428  1293 Michelin/661
33316.67Kyle Horn   Durango, CO02:47.27 226818  1292 Durango Devo
34318.75Caleb DOANE   02:47.51  1469 Spin Cycles
35320.83Bergen Tjossem   Vail, CO02:49.80 245337  1116 RPM / Yeti
36322.92Jake Payne   Placentia, CA03:09.00 258323  1355 Chumba Racing
37325.00Dillon Smith   Carbondale, CO03:23.45 247134  1483 
DNSAndy Becker   Santa Barbara, CADNS 217150  812 DRR Giantnerd
DNSZach McDonald   Bainbridge Island, WADNS 228238  910 Classic Cycles
DNSParker Worthington   Mooresville, NCDNS 211836  1543 Puma
DNSHarrison Phelps   Sammamish, WADNS 261547  1583 Downhill Zone

Men - Cat 1 - Senior - 19-24

 Place Points NameCity, StateTime USAC #BibTeam
1200.00Tyler Immer   Rancho Murieta, CA02:20.47 276049  960 
2202.42Jordan Hill   Highlands Ranch, CO02:29.29 230595  1539 Giant Bicycles / Stroker Industries
3204.84Tyler Gilsdorf   Sammamish, WA02:29.80 228041  514 Downhill Zone / Elka Suspension
4207.26Brad Motherway   Loveland, CO02:31.13 174765  1537 Jett / The Fix
5209.68Arthur Daley   Hurley, NY02:31.87 175102  243 
6212.10Kevin Swanson   Santa Barbara, CA02:32.65 245061  1458 
7214.52Teague Card   Sierra Madre, CA02:32.70 276752  1498 The Path Bike Shop
8216.94Paul Komatz   Centennial, CO02:33.99 261439  1580 Canyon Cycles
9219.35Phil Ott   Marquette, MI02:34.29 227380  1132 Hayes Bicycle Group / QSBS
10221.77Chris Myers   Colorado Springs, CO02:34.63 225550  1567 Spruce Moose
11224.19Ryan Strang   Newbury Park, CA02:35.44 249533  1315 
12226.61Chase Bohn   Kekaha, HI02:35.46 268851  160 Versus Cycles
13229.03Tom Doran   Dublin, CA02:36.81 284516  1611 Go Pro / Turner
14231.45Jared KESSLER   02:37.08  1460 The Hub
15233.87stan jorgensen   Goleta, CA02:37.40 277401  1530 Team Mom and Dad!
16236.29Troy Hagopian   Coarsegold, CA02:38.68 175784  1153 
17238.71Keaton Ward   Colorado Springs, CO02:40.16 191175  1582 
18241.13Daniel Phillips   Bridgeport, CT02:41.64 227999  1475 Crankfire Racing
19243.55Peter Schulze   Los Alamos, NM02:41.84 263802  1496 Trek / MRP
20245.97Jeffrey Kamper   Littleton, CO02:42.34 230683  1018 Mojo Wheels
21248.39Jeffrey Whall-Bordeaux   Golden, CO02:42.56 246087  1578 RMTT
22250.81Nicholas Weighall   Santa Cruz , CA02:42.88 128164  65 Rad Racing NW
23253.23Cody Greatbatch   Swanzey, NH02:46.06 187910  1562 Chumba / Marzocchi / Drummer Racing
24255.65Jordan Newth   West Rutland, VT02:46.51 282818  1359 
25258.06Paul Mayes   Homer Il02:46.79 298480  971 
26260.48Brent Carter   Santa Barbara, CA02:47.90 293065  776 
27262.90Stephen Solt   Emmaus, PA02:57.81 234296  1467 South Mountain Cycles / Plattekill
28265.32Daniel Rihm   Manchester Ctr, VT03:02.27 163050  1206 
29267.74Max Beard   Englewood, CO03:04.54 236042  1142 Yeti / RPM
30270.16Matt Orlando   Gig Harbor03:08.78 295526  1413 Fanatik Bike Co.
31272.58Casey Swanson   Glastonbury03:08.86 279475  1476 Crankfire Racing
DNSBen Cruz   Novato, CADNS 213397  610 WTB
DNSJohn Koch   Atherton, CADNS 244057  1096 Habilis Downhill
DNSDennis Yuroshek   Tempe, AZDNS 277459  1332 2wheelfreaks.com hayes/manitou group
DNSChris Bateman   Bellingham, WADNS 270452  1399 PLUNDER/Fanatik Bike Co.
DNSBen Jones   Reno, NVDNS 201529  1446 
DNSKyle Kimble   Bartonsville, PADNS 265261  1447 Vertical Earth
DNSVaughn Larsen   Bellingham, WADNS 270454  1118 PLUNDER
DNFHarrison Teuber   Rapid City, SDDNF 278868  1535 

Men - Cat 1 - Senior - 25-29

 Place Points NameCity, StateTime USAC #BibTeam
1200.00Colin Tobin   Bellingham, WA02:33.04 280742  997 PLUNDER / Fanatik Bike Co.
2209.38Kelley Kurtz   Rapidcity, SD02:39.24 288909  1017 Transition Bike Co / Green Mtn Sports
3218.75David Kulaga   Citrus Heights, CA02:40.03 234490  1459 The Hub
4228.12Phillip Chilimindris   Denver, CO02:43.70 158652  1477 Cee-Low Riders
5237.50Daniel Godard   Austin Tx02:48.15 254239  1427 Mojo Wheels
6246.88Mark Mueller   Lamy, NM03:06.02 211800  965 BTI
7256.25Robert McCarthy   Portland, OR03:08.82 150078  1407 One Ghost Industries/POW Gloves/Republik
8265.62Casey Norton   Colorado Springs, CO03:09.62 183863  1308 Giant / RockShox
DNSMatthew Layne   Aspen, CODNS 247631  825 Monster Drop Shop
DNSBilly Parker   Denver, CODNS 230066  1524 661/Sunline/mrp/Royal
DNFBrad Pastir   Salt Lake City, UTDNF 171733  1581 Chainsmoke

Men - Cat 1 - Master - 30-34

 Place Points NameCity, StateTime USAC #BibTeam
1200.00Damion SMITH   02:26.51  1344 Yeti Cycles
2203.95Matthew Patterson   Snoqualmie, WA02:33.69 231152  1376 Dirt Corps / Transition Bikes / Nema
3207.89Jon Houde   Roseville, CA02:33.94 245434  1078 The Hub
4211.84Eric Landis   Grand Junction, CO02:36.60 288034  1548 Grass Roots Cycles / All Sound Designs
5215.79Ryan Knipe   Loveland, CO02:36.93 228890  693 Canyon Cycles / Nema
6219.74Billy Mantle   Avon, CO02:39.20 256570  1425 Colorado Bike Service
7223.68Chris Webb   Lakewood, CO02:39.38 266715  1326 Monster Drop Shop
8227.63Jason Wilber   Silverthorne, CO02:40.17 268353  1573 Monster Drop Shop/Rock Garden
9231.58Aaron Braggs   Moab, UT02:40.65 279014  1213 Brooklyn / Rock Shox / Red River Canoe
10235.53Jeff Kegu   Leadville, CO02:40.94 245608  1270 Motor Tabs/SDG/ODI/E13/661/Crank Bros
11239.47Jason Schippers   Highlands Ranch, CO02:41.74 128580  1478 661 / Sunline / Royal
12243.42Jason Moody   Littleton, CO02:43.03 225293  1302 Mojo Wheels
13247.37Travis Marshall   Grand Junction, CO02:43.52 182848  599 Grassroots Cycles
14251.32Joshua Moore   Denver, CO02:54.87 265098  1073 Mojo Wheels
15255.26Wesley Bennett   Golden, CO02:55.27 250067  1110 Colorado Bike Service / E-13 / Dvision 2
16259.21Stephen Zvorsky   Simi Valley, CA02:55.37 167804  601 KHS
17263.16Zane Patterson   Boise, ID02:57.17 135922  1595 Joyride Cycles
18267.11Nick Newman   Draper, UT03:01.60 153793  1568 
19271.05Brian Pier   Golden, CO03:07.15 192988  1345 Yeti Cycles
DNSSantiago Garcia   Central City, CODNS 179289  1354 Secret Cyclery
DNFJake Anderson   Stoneham, MADNF 121806  698 Telluride Sports / Oakley

Men - Cat 1 - Master - 35-39

 Place Points NameCity, StateTime USAC #BibTeam
1200.00John Lewis   Henderson, CO02:33.01 261966  978 Wheatridge Cyclery
2206.82Shawnee McGovern   Boulder, CO02:38.03 83560  1437 Orbit Racing
3213.64Christian Robertson   Crested Butte, CO02:39.36 264836  847 Crested Butte Mountain Sports Team / GoB
4220.45Michael Males   Ahwahnee, CA02:39.36 111454  1209 
5227.27Harold (Lee) McGuffey   Salt Lake City, UT02:39.91 264026  724 
6234.09Mike West   Boulder, CO02:41.26 37786  296 Maverick
7240.91PhuQuy Nguyen   Denver, CO02:45.95 175280  1357 Mojo Wheels
8247.73Clint DeMill   Salt Lake City, UT02:49.18 250085  744 
9254.55Aaron Gilliland   Loveland, CO02:55.61 100256  1558 ONeal/Azonic/GT Designs
10261.36Evan Chute   Golden, CO02:56.78 180833  1336 RPM/Yeti
11268.18Barry Hirst   Fillmore, CA02:58.98 190221  1400 
12275.00Jim Brown   Cool, CA03:30.46 169685  1585 
DNSGary Bischoff   Durango, CODNS 102948  878 Nema / Magura / Azonic
DNSHeath Sherratt   Roseville, CADNS 189953  991 The Hub Roseville
DNSMatthew Phillips   Durango, CODNS 28062  996 Mountain Bike Magazine
DNSShawn Schooley   Soldotna, AKDNS 241784  1168 Fuel Clothing
DNSDustin Smith   San Francisco, CADNS 239397  1380 Ride SFO Faction

Men - Cat 1 - Master - 40-44

 Place Points NameCity, StateTime USAC #BibTeam
1250.00Michael Darter   Topanga, CA02:40.19 153158  1479 
2256.82Brad Watt   Cornelius, OR02:41.33 199561  1325 
3263.64Damon Kirchmeier   Farmington, UT02:46.71 19248  1394 Fezzari
4270.45Mark Brent   Seattle, WA02:50.64 261906  1411 Bones Over Metal
5277.27Craig Jeffers   Plainfield, IL02:51.40 138405  1510 High Gear Racing
6Robert Garcia   Dillon, CO02:55.72 12796  1527 Wolf Rock Racing
7290.91Randy Hall   Las Vegas, NV02:56.21 64140  1445 
8297.73David Decker   Newark, CA02:56.57 131607  618 Oakley / Maxxis
9304.55Scott Hackett   Lakewood, CO02:58.02 14537  912 Team Body Sync / Leading Edge Sports
10311.36Terry Maddox   Blythe, CA03:13.49 157171  1501 Incycle
11318.18David Dasta   Las Vegas, NV03:37.01 238231  1513 KHS Bicycles
DNSRichard Hackett   Dillon, CODNS 297490  807 Wolf Rock Racing
DNSChris Conroy   Evergreen, CODNS 136717  1481 Yeti Cycles
DNFCraig Skinner   Sandy, UTDNF 175051  1072 

Men - Cat 1 - Master - 45-49

 Place Points NameCity, StateTime USAC #BibTeam
1250.00Darrell Jamieson   La Center, WA02:38.99 230745  733 Project 529
2256.82Chris Bentley   Fall City, WA02:48.08 199389  1255 Team TAI / FSA / Fox
3263.64Wade Wilderman   Fraser, CO02:49.57 38221  1333 Team Totally Wired
4270.45Craig Van Cleve   Henderson, NV02:58.53 110847  1493 ODI Southbridge
5277.27Julian Cabreana   Crystallake, IL03:00.08 281422  1512 High Gear Racing
6284.09Brian Bailey   Carbondale, CO03:01.13 227699  1418 Team Geronimo
7290.91Ali Mortezaei   Folsom, CA03:03.63 139465  1514 Dark Horse Racing
8297.73Curt Clemetson   Aspen, CO03:08.06 279045  1571 Dead Bros
9304.55Reid Kiniry   Northfield, VT03:08.22 19208  1051 Michelin
10311.36Don Jackson   Riverside, CA03:08.51 17510  1339 ODI Southridge
11318.18Michael Monsauret   Aspen, CO03:15.30 246557  1077 Terminal Velocity Racing
12325.00Michael Rothenbeck   Easton, PA03:50.56 218912  1443 Azonic / Sheridan Printing / Racers Edge
DNSJon Martin   Arcata, CADNS 169689  1391 Dark Horse Racing

Men - Cat 1 - Master - 50-99

 Place Points NameCity, StateTime USAC #BibTeam
1300.00Les Price   Scottsdale, AZ02:51.99 177801  1396 No Brakes-Racing
2312.50Bill Lorrain   Alta, CA02:58.45 215263  1499 Cove USA
3325.00David Woodall   San Rafael, CA03:11.20 250521  823 
4337.50Scott Smith   Porterville, CA03:11.66 33283  1338 ODI Southridge
5350.00Scott Lideen   Phoenix, AZ03:18.97 142637  1565 DP Air/Santa Cruz
6362.50Joel Creed   Franklin, IN03:26.51 146083  1159 
7375.00Gerardo Florez   Ponte Vedra, FL03:32.46 144584  1052 Pain Relief Institute

Men - Junior - 1-10

 Place Points NameCity, StateTime USAC #BibTeam
1550.00Chase Jamieson   La Center, WA04:20.35 295632  732 Project 529 Legion
2562.50Sam Serra   Highlands Ranch, CO04:48.86 262502  1584 Bikesource
3575.00Marcus Medford   Englewood, CO05:03.94 265361  1299 Team Kozos

Men - Junior - 11-12

 Place Points NameCity, StateTime USAC #BibTeam
1500.00Troy Sladeck   Foothill Ranch03:10.09 225356  1552 Santa Cruz Bicycles
2518.75Sawyer Cousineau   Tabernash, CO03:27.02 282736  701 Totally Wired Cyclery
3537.50Devon McDade   Lakewood, CO03:45.27 297034  1438 Mojo Wheels
4556.25Danny Weber   Parker, CO03:57.17 278550  1038 Team Kozos
5575.00Tyler Spence   Carbondale, CO04:04.52 248811  1348 Team Geronimo

Men - Junior - 13-14

 Place Points NameCity, StateTime USAC #BibTeam
1400.00Richard Rude JR   Redding, CT02:28.98 209311  1314 Santa Cruz Allride Academy
2403.95Roy Benge   Carbondale, CO02:47.22 246529  1181 Team Geronimo
3407.89Logan Mulally   Reading, PA02:47.43 247832  1304 Specialized Team America
4411.84Chase Nelson   Littleton, CO02:50.16 264517  1474 
5415.79Matthew Branney   Littleton, CO02:52.36 219366  988 RPM / Yeti
6419.74Tanner Spence   Carbondale, CO02:55.49 246796  1349 Team Geronimo
7423.68Kellen Lutz   Fraser, CO02:55.90 265510  1334 Totally Wired Cyclery
8427.63Galen Carter   Salt Lake City, UT03:00.84 231784  1277 Go-ride.com / Smith Optics / 661 / Maxxi
9431.58Max Kaupas   Dillon, CO03:01.15 292910  1187 Wolf Rock Racing
10435.53Riley Farrar   Amarillo, TX03:01.82 281838  586 
11439.47Robert Pettit   Basalt, CO03:04.21 267136  1451 Team Geronimo
12443.42Derek DeYoung   Preston, WA03:14.64 298797  1106 TAI
13447.37Dallas Pynchon   Boise, ID03:14.91 295043  949 Joyride Cycles
14451.32Zachary Proctor   Centennial, CO03:20.93 289154  745 Mojo Wheels
15455.26Jayce Heatley   Amarillo, TX03:35.08 298984  1417 Oneghost Industries
16459.21Cameron Ory   Denver, CO03:37.43 230691  1239 Mojo Wheels
17463.16Michael Hendry   Littleton, CO03:39.75 272110  859 Mojo Wheels
18467.11Wesley Medford   Englewood, CO03:41.41 265366  1300 Team Kozos
19471.05Mackay Hare   Park City, UT04:11.58 298806  828 HCPC
20475.00Damon Jr KIRCHMEIER   04:18.92  1485 Fezzari

Women - Cat 3 - Master - 30-99

 Place Points NameCity, StateTime USAC #BibTeam
1400.00Ann Davis   Maple Valley, WA04:22.15 269817  765 Theraputic Associates / Black Diamond Ra
2437.50Rachel Delateur   Tumwater, WA05:14.01 9108  774 GL6 / Joyride
3475.00Jennel Ortiz   Little Falls, NJ05:59.65 278924  1201 Team Marty's

Women - Cat 2 - Senior - 19-29

 Place Points NameCity, StateTime USAC #BibTeam
1200.00Melissa O'Connell   Denver, CO03:13.60 297938  1603 
2215.00Jesse Kirkpatrick   Grand Junction, CO03:27.37 296556  1205 Grassroots Cycles
3230.00Kyra Alexander   Grand Junction, CO03:39.76 298064  880 
4245.00lauren heitzman   Aurora, CO03:42.20 283632  715 
5260.00Kristin Buell   Boulder, CO04:06.68 298236  1575 
6275.00Christin McCurdy   Park City, UT04:19.80 293102  1040 

Women - Cat 2 - Master - 30-39

 Place Points NameCity, StateTime USAC #BibTeam
1300.00Lana Lawson   Palmer Lake, CO03:43.59 284083  769 Canyon Cycles
2375.00Amber Price   Westminster, CO04:16.59 255122  1194 

Women - Cat 2 - Master - 40-99

 Place Points NameCity, StateTime USAC #BibTeam
1350.00Bonnie Miller   Sedona, AZ04:36.66 298781  1125 

Women - Cat 1 - Senior - 19-29

 Place Points NameCity, StateTime USAC #BibTeam
1200.00Alisha Gibson   Durango, CO03:08.06 243237  1074 
2212.50Emma Millar   Durango, CO03:09.84 212612  1095 
3225.00Johanne Tuttle   Brevard, NC03:14.63 268967  1440 Sycamore Cycles
4237.50Annemarie Hennes   Santa Cruz, CA03:32.83 280075  1199 Family Cycling Center
5250.00Katy Monger   Avon, CO03:35.24 286012  1522 Mojo Wheels
6262.50Liana Gregory   Steamboat Springs , CO03:35.95 294470  1600 Transcend Magazine
7275.00Christen Boyer   Aspen, CO03:57.30 248742  1225 One Ghost Industries

Women - Cat 1 - Master - 30-39

 Place Points NameCity, StateTime USAC #BibTeam
1200.00Chelsey Stevens   Spokane, WA03:06.31 268172  676 Wheel Sport East / POW
2237.50Soraya Khalje   Denver, CO03:15.59 247193  1492 Orbit Racing
3275.00Rosie Bernhard   Santa Cruz, CA03:30.14 286745  1455 Another Bike Shop

Women - Junior - 13-14

 Place Points NameCity, StateTime USAC #BibTeam
1400.00Cierra Smith   Reno03:14.86 234034  1586 Santa Cruz All Ride Academy
2475.00Maddie CROWLEY   04:23.49  1464 Sinister / United Freeride

Report missing or incorrect license numbers

Volkswagen
USACDFShimanoSierra NevadaBonk BreakerSpy
UCI USA Cycling is the official governing body for all disciplines of competitive cycling in the United States. The 501c3, membership-based organization aims both to achieve sustained success in international cycling competition and to grow competitive cycling in America while delivering an exceptional customer experience.
View Children's Online Privacy Protection Policy
US Olympic Committee